Time,TemperatureF,DewpointF,PressureIn,WindDirection,WindDirectionDegrees,WindSpeedMPH,WindSpeedGustMPH,Humidity,HourlyPrecipIn,Conditions,Clouds,dailyrainin,SolarRadiationWatts/m^2,SoftwareType,DateUTC
2013-01-07 00:02:00,33.0,25.0,-100.00,SE,130,2.0,3.0,72,0.00,,,0.00,0.000000,,2013-01-07 06:02:00,
2013-01-07 00:32:00,31.0,23.0,-100.00,ESE,116,3.0,4.0,72,0.00,,,0.00,0.000000,,2013-01-07 06:32:00,
2013-01-07 00:42:00,31.0,23.0,-100.00,ESE,116,3.0,4.0,72,0.00,,,0.00,0.000000,,2013-01-07 06:42:00,
2013-01-07 00:52:00,31.0,23.0,-100.00,ESE,116,3.0,4.0,72,0.00,,,0.00,0.000000,,2013-01-07 06:52:00,
2013-01-07 01:02:00,31.0,23.0,-100.00,ESE,116,3.0,4.0,72,0.00,,,0.00,0.000000,,2013-01-07 07:02:00,
2013-01-07 01:33:00,31.0,23.0,-100.00,WSW,243,1.0,4.0,73,0.00,,,0.00,0.000000,,2013-01-07 07:33:00,
2013-01-07 01:43:00,31.0,23.0,-100.00,WSW,243,1.0,4.0,73,0.00,,,0.00,0.000000,,2013-01-07 07:43:00,
2013-01-07 01:53:00,31.0,23.0,-100.00,WSW,243,1.0,4.0,73,0.00,,,0.00,0.000000,,2013-01-07 07:53:00,
2013-01-07 02:03:00,31.0,23.0,-100.00,WSW,243,1.0,4.0,73,0.00,,,0.00,0.000000,,2013-01-07 08:03:00,
2013-01-07 02:33:00,30.0,22.0,-100.00,SW,218,2.0,4.0,73,0.00,,,0.00,0.000000,,2013-01-07 08:33:00,
2013-01-07 02:43:00,30.0,22.0,-100.00,SW,218,2.0,4.0,73,0.00,,,0.00,0.000000,,2013-01-07 08:43:00,
2013-01-07 02:53:00,30.0,22.0,-100.00,SW,218,2.0,4.0,73,0.00,,,0.00,0.000000,,2013-01-07 08:53:00,
2013-01-07 03:02:00,30.0,22.0,-100.00,SW,218,2.0,4.0,73,0.00,,,0.00,0.000000,,2013-01-07 09:02:00,
2013-01-07 03:32:00,29.0,25.0,-100.00,South,183,1.0,2.0,86,0.00,,,0.00,0.000000,,2013-01-07 09:32:00,
2013-01-07 03:42:00,29.0,25.0,-100.00,South,183,1.0,2.0,86,0.00,,,0.00,0.000000,,2013-01-07 09:42:00,
2013-01-07 03:52:00,29.0,25.0,-100.00,South,183,1.0,2.0,86,0.00,,,0.00,0.000000,,2013-01-07 09:52:00,
2013-01-07 04:02:00,29.0,25.0,-100.00,South,183,1.0,2.0,86,0.00,,,0.00,0.000000,,2013-01-07 10:02:00,
2013-01-07 04:33:00,28.0,23.0,-100.00,NNW,333,1.0,3.0,82,0.00,,,0.00,0.000000,,2013-01-07 10:33:00,
2013-01-07 04:43:00,28.0,23.0,-100.00,NNW,333,1.0,3.0,82,0.00,,,0.00,0.000000,,2013-01-07 10:43:00,
2013-01-07 04:52:00,28.0,23.0,-100.00,NNW,333,1.0,3.0,82,0.00,,,0.00,0.000000,,2013-01-07 10:52:00,
2013-01-07 05:02:00,28.0,23.0,-100.00,NNW,333,1.0,3.0,82,0.00,,,0.00,0.000000,,2013-01-07 11:02:00,
2013-01-07 05:33:00,28.0,24.0,-100.00,SSW,203,1.0,2.0,84,0.00,,,0.00,0.000000,,2013-01-07 11:33:00,
2013-01-07 05:43:00,28.0,24.0,-100.00,SSW,203,1.0,2.0,84,0.00,,,0.00,0.000000,,2013-01-07 11:43:00,
2013-01-07 05:53:00,28.0,24.0,-100.00,SSW,203,1.0,2.0,84,0.00,,,0.00,0.000000,,2013-01-07 11:53:00,
2013-01-07 06:03:00,28.0,24.0,-100.00,SSW,203,1.0,2.0,84,0.00,,,0.00,0.000000,,2013-01-07 12:03:00,
2013-01-07 06:33:00,27.0,24.0,-100.00,ESE,115,2.0,3.0,90,0.00,,,0.00,0.000000,,2013-01-07 12:33:00,
2013-01-07 06:43:00,27.0,24.0,-100.00,ESE,115,2.0,3.0,90,0.00,,,0.00,0.000000,,2013-01-07 12:43:00,
2013-01-07 06:53:00,27.0,24.0,-100.00,ESE,115,2.0,3.0,90,0.00,,,0.00,0.000000,,2013-01-07 12:53:00,
2013-01-07 07:02:00,27.0,24.0,-100.00,ESE,115,2.0,3.0,90,0.00,,,0.00,0.000000,,2013-01-07 13:02:00,
2013-01-07 07:33:00,28.0,25.0,-100.00,WSW,253,2.0,5.0,90,0.00,,,0.00,0.000000,,2013-01-07 13:33:00,
2013-01-07 07:43:00,28.0,25.0,-100.00,WSW,253,2.0,5.0,90,0.00,,,0.00,0.000000,,2013-01-07 13:43:00,
2013-01-07 07:53:00,28.0,25.0,-100.00,WSW,253,2.0,5.0,90,0.00,,,0.00,0.000000,,2013-01-07 13:53:00,
2013-01-07 08:03:00,28.0,25.0,-100.00,WSW,253,2.0,5.0,90,0.00,,,0.00,0.000000,,2013-01-07 14:03:00,
2013-01-07 08:33:00,29.0,27.0,-100.00,SW,235,1.0,5.0,91,0.00,,,0.00,20.000000,,2013-01-07 14:33:00,
2013-01-07 08:43:00,29.0,27.0,-100.00,SW,235,1.0,5.0,91,0.00,,,0.00,20.000000,,2013-01-07 14:43:00,
2013-01-07 08:53:00,29.0,27.0,-100.00,SW,235,1.0,5.0,91,0.00,,,0.00,20.000000,,2013-01-07 14:53:00,
2013-01-07 09:03:00,29.0,27.0,-100.00,SW,235,1.0,5.0,91,0.00,,,0.00,20.000000,,2013-01-07 15:03:00,
2013-01-07 09:33:00,37.0,35.0,-100.00,North,358,2.0,4.0,91,0.00,,,0.00,200.000000,,2013-01-07 15:33:00,
2013-01-07 09:43:00,37.0,35.0,-100.00,North,358,2.0,4.0,91,0.00,,,0.00,200.000000,,2013-01-07 15:43:00,
2013-01-07 09:53:00,37.0,35.0,-100.00,North,358,2.0,4.0,91,0.00,,,0.00,200.000000,,2013-01-07 15:53:00,
2013-01-07 10:02:00,37.0,35.0,-100.00,North,358,2.0,4.0,91,0.00,,,0.00,200.000000,,2013-01-07 16:02:00,
2013-01-07 10:33:00,47.0,37.0,-100.00,SE,145,7.0,13.0,69,0.00,,,0.00,265.000000,,2013-01-07 16:33:00,
2013-01-07 10:43:00,47.0,37.0,-100.00,SE,145,7.0,13.0,69,0.00,,,0.00,265.000000,,2013-01-07 16:43:00,
2013-01-07 10:53:00,47.0,37.0,-100.00,SE,145,7.0,13.0,69,0.00,,,0.00,265.000000,,2013-01-07 16:53:00,
2013-01-07 11:02:00,47.0,37.0,-100.00,SE,145,7.0,13.0,69,0.00,,,0.00,265.000000,,2013-01-07 17:02:00,
2013-01-07 11:33:00,51.0,33.0,-100.00,SSE,150,8.0,14.0,49,0.00,,,0.00,461.000000,,2013-01-07 17:33:00,
2013-01-07 11:43:00,51.0,33.0,-100.00,SSE,150,8.0,14.0,49,0.00,,,0.00,461.000000,,2013-01-07 17:43:00,
2013-01-07 11:53:00,51.0,33.0,-100.00,SSE,150,8.0,14.0,49,0.00,,,0.00,461.000000,,2013-01-07 17:53:00,
2013-01-07 12:03:00,51.0,33.0,-100.00,SSE,150,8.0,14.0,49,0.00,,,0.00,461.000000,,2013-01-07 18:03:00,
2013-01-07 12:33:00,53.0,34.0,-100.00,SSE,148,6.0,14.0,49,0.00,,,0.00,547.000000,,2013-01-07 18:33:00,
2013-01-07 12:43:00,53.0,34.0,-100.00,SSE,148,6.0,14.0,49,0.00,,,0.00,547.000000,,2013-01-07 18:43:00,
2013-01-07 12:53:00,53.0,34.0,-100.00,SSE,148,6.0,14.0,49,0.00,,,0.00,547.000000,,2013-01-07 18:53:00,
2013-01-07 13:03:00,53.0,34.0,-100.00,SSE,148,6.0,14.0,49,0.00,,,0.00,547.000000,,2013-01-07 19:03:00,
2013-01-07 13:33:00,54.0,32.0,-100.00,SSE,151,8.0,14.0,43,0.00,,,0.00,535.000000,,2013-01-07 19:33:00,
2013-01-07 13:43:00,54.0,32.0,-100.00,SSE,151,8.0,14.0,43,0.00,,,0.00,535.000000,,2013-01-07 19:43:00,
2013-01-07 13:53:00,54.0,32.0,-100.00,SSE,151,8.0,14.0,43,0.00,,,0.00,535.000000,,2013-01-07 19:53:00,
2013-01-07 14:03:00,54.0,32.0,-100.00,SSE,151,8.0,14.0,43,0.00,,,0.00,535.000000,,2013-01-07 20:03:00,
2013-01-07 14:33:00,55.0,32.0,-100.00,ESE,103,5.0,12.0,42,0.00,,,0.00,431.000000,,2013-01-07 20:33:00,
2013-01-07 14:43:00,55.0,32.0,-100.00,ESE,103,5.0,12.0,42,0.00,,,0.00,431.000000,,2013-01-07 20:43:00,
2013-01-07 14:53:00,55.0,32.0,-100.00,ESE,103,5.0,12.0,42,0.00,,,0.00,431.000000,,2013-01-07 20:53:00,
2013-01-07 15:03:00,55.0,32.0,-100.00,ESE,103,5.0,12.0,42,0.00,,,0.00,431.000000,,2013-01-07 21:03:00,
2013-01-07 15:33:00,56.0,33.0,-100.00,SE,129,6.0,12.0,41,0.00,,,0.00,349.000000,,2013-01-07 21:33:00,
2013-01-07 15:43:00,56.0,33.0,-100.00,SE,129,6.0,12.0,41,0.00,,,0.00,349.000000,,2013-01-07 21:43:00,
2013-01-07 15:53:00,56.0,33.0,-100.00,SE,129,6.0,12.0,41,0.00,,,0.00,349.000000,,2013-01-07 21:53:00,
2013-01-07 16:02:00,56.0,33.0,-100.00,SE,129,6.0,12.0,41,0.00,,,0.00,349.000000,,2013-01-07 22:02:00,
2013-01-07 16:33:00,54.0,30.0,-100.00,ESE,119,5.0,12.0,40,0.00,,,0.00,248.000000,,2013-01-07 22:33:00,
2013-01-07 16:43:00,54.0,30.0,-100.00,ESE,119,5.0,12.0,40,0.00,,,0.00,248.000000,,2013-01-07 22:43:00,
2013-01-07 16:53:00,54.0,30.0,-100.00,ESE,119,5.0,12.0,40,0.00,,,0.00,248.000000,,2013-01-07 22:53:00,
2013-01-07 17:02:00,54.0,30.0,-100.00,ESE,119,5.0,12.0,40,0.00,,,0.00,248.000000,,2013-01-07 23:02:00,
2013-01-07 17:33:00,51.0,30.0,-100.00,SE,124,3.0,9.0,45,0.00,,,0.00,79.000000,,2013-01-07 23:33:00,
2013-01-07 17:43:00,51.0,30.0,-100.00,SE,124,3.0,9.0,45,0.00,,,0.00,79.000000,,2013-01-07 23:43:00,
2013-01-07 17:53:00,51.0,30.0,-100.00,SE,124,3.0,9.0,45,0.00,,,0.00,79.000000,,2013-01-07 23:53:00,
2013-01-07 18:02:00,51.0,30.0,-100.00,SE,124,3.0,9.0,45,0.00,,,0.00,79.000000,,2013-01-08 00:02:00,
2013-01-07 18:33:00,48.0,31.0,-100.00,SE,140,3.0,6.0,51,0.00,,,0.00,9.000000,,2013-01-08 00:33:00,
2013-01-07 18:43:00,48.0,31.0,-100.00,SE,140,3.0,6.0,51,0.00,,,0.00,9.000000,,2013-01-08 00:43:00,
2013-01-07 18:53:00,48.0,31.0,-100.00,SE,140,3.0,6.0,51,0.00,,,0.00,9.000000,,2013-01-08 00:53:00,
2013-01-07 19:03:00,48.0,31.0,-100.00,SE,140,3.0,6.0,51,0.00,,,0.00,9.000000,,2013-01-08 01:03:00,
2013-01-07 19:33:00,43.0,30.0,-100.00,South,169,2.0,4.0,61,0.00,,,0.00,0.000000,,2013-01-08 01:33:00,
2013-01-07 19:42:00,43.0,30.0,-100.00,South,169,2.0,4.0,61,0.00,,,0.00,0.000000,,2013-01-08 01:42:00,
2013-01-07 19:52:00,43.0,30.0,-100.00,South,169,2.0,4.0,61,0.00,,,0.00,0.000000,,2013-01-08 01:52:00,
2013-01-07 20:02:00,43.0,30.0,-100.00,South,169,2.0,4.0,61,0.00,,,0.00,0.000000,,2013-01-08 02:02:00,
2013-01-07 20:33:00,45.0,34.0,-100.00,SE,130,3.0,5.0,66,0.00,,,0.00,0.000000,,2013-01-08 02:33:00,
2013-01-07 20:43:00,45.0,34.0,-100.00,SE,130,3.0,5.0,66,0.00,,,0.00,0.000000,,2013-01-08 02:43:00,
2013-01-07 20:53:00,45.0,34.0,-100.00,SE,130,3.0,5.0,66,0.00,,,0.00,0.000000,,2013-01-08 02:53:00,
2013-01-07 21:03:00,45.0,34.0,-100.00,SE,130,3.0,5.0,66,0.00,,,0.00,0.000000,,2013-01-08 03:03:00,
2013-01-07 21:33:00,47.0,32.0,-100.00,ESE,116,4.0,10.0,56,0.00,,,0.00,0.000000,,2013-01-08 03:33:00,
2013-01-07 21:43:00,47.0,32.0,-100.00,ESE,116,4.0,10.0,56,0.00,,,0.00,0.000000,,2013-01-08 03:43:00,
2013-01-07 21:53:00,47.0,32.0,-100.00,ESE,116,4.0,10.0,56,0.00,,,0.00,0.000000,,2013-01-08 03:53:00,
2013-01-07 22:02:00,47.0,32.0,-100.00,ESE,116,4.0,10.0,56,0.00,,,0.00,0.000000,,2013-01-08 04:02:00,
2013-01-07 22:32:00,46.0,32.0,-100.00,ESE,102,3.0,7.0,57,0.00,,,0.00,0.000000,,2013-01-08 04:32:00,
2013-01-07 22:43:00,46.0,32.0,-100.00,ESE,102,3.0,7.0,57,0.00,,,0.00,0.000000,,2013-01-08 04:43:00,
2013-01-07 22:52:00,46.0,32.0,-100.00,ESE,102,3.0,7.0,57,0.00,,,0.00,0.000000,,2013-01-08 04:52:00,
2013-01-07 23:03:00,46.0,32.0,-100.00,ESE,102,3.0,7.0,57,0.00,,,0.00,0.000000,,2013-01-08 05:03:00,
2013-01-07 23:33:00,47.0,31.0,-100.00,SE,125,4.0,8.0,54,0.00,,,0.00,0.000000,,2013-01-08 05:33:00,
2013-01-07 23:43:00,47.0,31.0,-100.00,SE,125,4.0,8.0,54,0.00,,,0.00,0.000000,,2013-01-08 05:43:00,
2013-01-07 23:53:00,47.0,31.0,-100.00,SE,125,4.0,8.0,54,0.00,,,0.00,0.000000,,2013-01-08 05:53:00,